C/2023 H1 ( PanSTARRS )

Japanese version
Home page
Updated on September 4, 2024

---------------------------------------------------------------------

* Profile

Discovery Date April 17, 2023
Magnitude 20.8 mag
Discoverer Pan-STARRS 2 telescope (Haleakala)

* Orbital Elements

Epoch 2024 Oct. 17.0 TT = JDT 2460600.5
T 2024 Nov. 28.74760 TT                                 Rudenko
q   4.4477815            (2000.0)            P               Q
z  +0.0012962      Peri.  333.76601     -0.03341281     +0.93894425
 +/-0.0000049      Node   292.64858     -0.83929302     -0.21239538
e   0.9942346      Incl.   21.78085     -0.54265164     +0.27068782
>From 113 observations 2023 Apr. 17-2024 Aug. 22, mean residual 0".4.

* Magnitudes Graph

        m1 = 5.5 + 5 log d + 14.0 log r

---------------------------------------------------------------------

The orbital elements are published on M.P.E.C. 2024-R10.
The magnitudes graphs are made with Comet for Windows.

---------------------------------------------------------------------

Copyright(C) Seiichi Yoshida (comet@aerith.net). All rights reserved.